Location: *
(50.3440°N, 18.6237°E)
Time: 17:53:23
(UTC+00:00)

COSMO-SKYMED 1 - Pass Details

Date: 30 November 2020
Orbit: 621 x 623 km, 97.9° (Epoch: 18 January)

Event Time Altitude Azimuth Distance (km) Brightness Sun altitude
Exits shadow 17:04:20 35° 18° (NNE) 1,022 3.4 -21.3°
Maximum altitude 17:06:10 84° 102° (ESE) 634 2.4 -21.6°
Drops below altitude 10° 17:10:30 10° 193° (SSW) 1,990 5.4 -22.3°
Sets 17:12:41 0° 194° (SSW) 2,892 6.3 -22.6°
